Regional Weather Roundup
Issued by NWS New Orleans/Baton Rouge, LA

Home | Current Version | Previous Version | Text Only | Print | Product List | Glossary On
Versions: 1 2 3 4 5 6 7 8 9 10 11 12 13 14 15 16 17 18 19 20 21 22 23 24 25 26 27 28 29 30 31 32 33 34 35 36 37 38 39 40 41 42 43 44 45 46 47 48 49 50
363
ASUS44 KLIX 301307
RWRLIX
NEW ORLEANS REGIONAL WEATHER ROUNDUP
NATIONAL WEATHER SERVICE NEW ORLEANS LA
800 AM CDT MON MAR 30 2015

NOTE: "FAIR" INDICATES FEW OR NO CLOUDS BELOW 12,000 FEET WITH NO
      SIGNIFICANT WEATHER AND/OR OBSTRUCTIONS TO VISIBILITY.
      SKY/WX - SKY CONDITION AND SIGNIFICANT WEATHER.
      TMP - AIR TEMPERATURE.     DP    - DEWPOINT TEMPERATURE.
      RH  - RELATIVE HUMIDITY.   PRES  - PRESSURE.
      HI  - HEAT INDEX.          WCI   - WIND CHILL INDEX.

*  THESE STATIONS ARE NOT NWS OR FAA STATIONS AND ARE NOT UNDER
   NWS QUALITY CONTROL.

LAZ038-040-048-061>063-065>067-069-301400-
SOUTHEAST LOUISIANA

CITY           SKY/WX    TMP DP  RH WIND       PRES   REMARKS
N.O. AUDUBON   NOT AVBL
N.O. INTL ARPT PTSUNNY   65  61  87 CALM      30.25R FOG
N.O. LAKEFRONT PTSUNNY   68  63  84 N5        30.26R
SLIDELL        PTSUNNY   59  58  96 CALM      30.24R
BATON ROUGE    SUNNY     61  59  93 CALM      30.24R
BOOTHVILLE     SUNNY     64  62  93 CALM      30.26R
BELLE CHASSE   PTSUNNY   62  60  93 CALM      30.25R FOG
BOGALUSA*        N/A     58  55  91 CALM      30.25R
GALLIANO*      CLOUDY    56  56  99 CALM      30.25R FOG
NEW ROADS*       N/A     60  59  97 CALM      30.24R FOG
GONZALES*      CLOUDY    60  60 100 CALM      30.24R FOG
HAMMOND*       MOSUNNY   61  57  88 CALM      30.26R
HOUMA*         MOSUNNY   61  61 100 CALM      30.25R
PORT FOURCHON* MOSUNNY   72  66  83 CALM      30.28R

$$

MSZ070-080>082-301400-
SOUTHERN MISSISSIPPI

CITY           SKY/WX    TMP DP  RH WIND       PRES   REMARKS
MCCOMB         SUNNY     60  59  96 W3        30.23R FOG
GULFPORT       MOSUNNY   65  62  90 CALM      30.24R
BILOXI         MOSUNNY   66  66 100 SW5       30.24R
PASCAGOULA     MOSUNNY   66  64  93 SW3       30.24R
STENNIS ARPT*  MOSUNNY   59  55  88 CALM      30.25R FOG

$$

COASTAL OBSERVATIONS
LAKE AND NEARSHORE STATIONS

STATION/POSITION TIME  TEMP    WIND        PRES    WAVE
                       AIR SEA DIR/SP/G            HT/PER
                 (UTC) (F)     (DEG/KT/KT) (MB)    (FT/S)
PASCAGOULA       1200   67     220/  6/  9 1023.0
WAVELAND YACHT   1200   63 65   CALM  /  1 1023.5
GRAND ISLE       1200   68 67  260/  2/  3 1023.2
SOUTHWEST PASS   1200   64 54  210/  7/  9 1023.6
NEW CANAL        1200   66        CALM     1024.0
SHELL BEACH      1200   67 69  350/  3/  4 1023.7

OFFSHORE STATIONS

STATION/POSITION TIME  TEMP    WIND        PRES    WAVE
                       AIR SEA DIR/SP/G            HT/PER
                 (UTC) (F)     (DEG/KT/KT) (MB)    (FT/S)
64 S DAUPHIN ISL 1250   70 70  190/ 12/ 14 1024.9    3/ 5

$$




USA.gov is the U.S. government's official web portal to all federal, state and local government web resources and services.